Location: Quedlinburg
(51.7921°N, 11.1414°E)
Time: 05:45:57
(UTC+02:00)

METEOR M2 - Pass Details

Date: 16 March 2026
Orbit: 817 x 824 km, 98.5° (Epoch: 17 April)

Event Time Altitude Azimuth Distance (km) Brightness Sun altitude
Rises 03:37:38 0° 23° (NNE) 3,374 ? -25.8°
Reaches altitude 10° 03:40:25 10° 37° (NE) 2,436 ? -25.4°
Maximum altitude 03:44:49 25° 91° (E) 1,613 ? -24.9°
Drops below altitude 10° 03:49:11 10° 146° (SE) 2,420 ? -24.3°
Sets 03:51:56 0° 159° (SSE) 3,347 ? -23.9°
